N9XRG Weather Reports


time (UTC)temp
F
wind
direction
speed
knots
gust
knots
rain 1hr
in
rain 24hr
in
rain mn
in
humidity
%
barometer
mb
20260509033829 49 105 1.7 1.7 0.00 0.04 0.04 95 1008.4
20260509033326 50 111 1.7 1.7 0.00 0.04 0.04 95 1008.3
20260509032823 50 108 1.7 1.7 0.00 0.04 0.04 95 1008.4
20260509032320 50 115 1.7 1.7 0.00 0.04 0.04 95 1008.5
20260509031818 50 111 1.7 1.7 0.00 0.04 0.04 95 1008.4
20260509031315 50 101 1.7 1.7 0.00 0.04 0.04 95 1008.5
20260509030813 50 106 0.9 1.7 0.00 0.04 0.04 95 1008.4
20260509030310 50 112 1.7 1.7 0.00 0.04 0.04 95 1008.4
20260509025807 50 110 1.7 1.7 0.00 0.04 0.04 95 1008.5
20260509025306 51 112 1.7 1.7 0.00 0.04 0.04 95 1008.4
20260509024758 51 114 1.7 1.7 0.00 0.04 0.04 95 1008.9
20260509024254 51 100 0.9 1.7 0.00 0.04 0.04 95 1008.5
20260509023751 51 104 1.7 1.7 0.00 0.04 0.04 94 1008.6
20260509023249 51 109 1.7 2.6 0.00 0.04 0.04 94 1008.5
20260509022744 51 95 1.7 1.7 0.00 0.04 0.04 94 1008.6
20260509022242 51 111 1.7 1.7 0.00 0.04 0.04 94 1009.0
20260509021739 51 88 1.7 1.7 0.00 0.04 0.04 93 1008.7
20260509021236 52 94 0.9 1.7 0.00 0.04 0.04 93 1008.6
20260509020734 52 109 1.7 1.7 0.00 0.04 0.04 93 1008.9
20260509020231 52 103 1.7 1.7 0.00 0.04 0.04 93 1008.7
20260509015729 53 98 1.7 1.7 0.00 0.04 0.04 93 1008.5
20260509015227 53 104 1.7 2.6 0.00 0.04 0.04 93 1008.5
20260509014723 53 84 0.9 1.7 0.00 0.04 0.04 92 1008.6
20260509014220 53 100 0.9 1.7 0.00 0.04 0.04 92 1008.3
20260509013717 53 102 1.7 1.7 0.00 0.04 0.04 92 1008.1
20260509013213 54 146 1.7 2.6 0.00 0.04 0.04 91 1008.2
20260509012709 54 109 1.7 3.5 0.00 0.04 0.04 91 1008.4
20260509012206 54 100 1.7 1.7 0.00 0.04 0.04 91 1008.2
20260509011704 54 142 2.6 2.6 0.00 0.04 0.04 90 1008.3
20260509011201 54 106 1.7 1.7 0.00 0.04 0.04 90 1008.1
20260509010659 55 97 1.7 2.6 0.00 0.04 0.04 89 1008.1
20260509010155 55 130 1.7 3.5 0.00 0.04 0.04 89 1008.1
20260509005653 55 113 1.7 2.6 0.00 0.04 0.04 88 1008.0
20260509005149 55 122 2.6 6.1 0.00 0.04 0.04 88 1008.1
20260509004645 55 83 1.7 2.6 0.00 0.04 0.04 87 1008.0
20260509004142 55 130 3.5 3.5 0.00 0.04 0.04 87 1008.1
20260509003641 55 125 3.5 5.2 0.00 0.04 0.04 87 1008.1
20260509003138 56 98 1.7 2.6 0.00 0.04 0.04 87 1008.1
20260509002635 56 78 0.9 2.6 0.00 0.04 0.04 86 1008.0
20260509002132 56 119 1.7 5.2 0.00 0.04 0.04 86 1008.0
20260509001630 56 119 2.6 3.5 0.00 0.04 0.04 85 1008.1
20260509001125 56 117 1.7 5.2 0.00 0.04 0.04 85 1008.2
20260509000624 56 105 2.6 3.5 0.00 0.04 0.04 84 1008.2
20260509000120 57 109 1.7 5.2 0.00 0.04 0.04 84 1008.0
20260508235617 57 126 3.5 4.3 0.00 0.04 0.04 83 1008.2
20260508235114 57 142 4.3 5.2 0.00 0.04 0.04 83 1008.0
20260508234611 57 100 1.7 3.5 0.00 0.04 0.04 83 1008.1
20260508234107 57 55 1.7 4.3 0.00 0.04 0.04 83 1007.9
20260508233607 57 101 1.7 2.6 0.00 0.04 0.04 84 1008.1
20260508233104 57 115 3.5 6.1 0.00 0.04 0.04 83 1008.1
20260508232601 57 132 1.7 4.3 0.00 0.04 0.04 84 1008.1
20260508232057 58 112 2.6 2.6 0.00 0.04 0.04 84 1008.4
20260508231556 57 121 1.7 3.5 0.00 0.04 0.04 85 1008.1
20260508231052 57 126 1.7 2.6 0.00 0.04 0.04 86 1008.5
20260508230549 57 113 1.7 5.2 0.00 0.04 0.04 85 1008.4
20260508230045 57 139 1.7 4.3 0.00 0.04 0.04 85 1008.4
20260508225543 57 132 1.7 5.2 0.00 0.04 0.04 86 1008.3
20260508225039 57 110 1.7 3.5 0.00 0.04 0.04 85 1008.7
20260508224538 57 153 2.6 4.3 0.00 0.04 0.04 85 1008.2
20260508224034 57 137 1.7 5.2 0.00 0.04 0.04 85 1008.4
20260508223532 57 74 2.6 2.6 0.00 0.04 0.04 86 1008.3
20260508223029 57 160 4.3 4.3 0.00 0.04 0.04 86 1008.4
20260508222527 57 139 1.7 4.3 0.00 0.04 0.04 86 1008.5
20260508222023 57 137 5.2 5.2 0.00 0.04 0.04 84 1008.6
20260508221520 57 159 2.6 4.3 0.00 0.04 0.04 84 1008.4
20260508221015 57 153 1.7 5.2 0.00 0.04 0.04 83 1008.5
20260508220512 57 131 0.0 5.2 0.00 0.04 0.04 83 1008.5
20260508220009 57 122 1.7 2.6 0.00 0.04 0.04 83 1008.6
20260508215505 57 140 1.7 3.5 0.00 0.04 0.04 82 1008.3
20260508215002 57 121 1.7 6.1 0.00 0.04 0.04 82 1008.6
20260508214500 58 85 1.7 4.3 0.00 0.04 0.04 82 1008.6
20260508213955 58 113 1.7 2.6 0.00 0.04 0.04 82 1008.6
20260508213454 58 108 1.7 3.5 0.00 0.04 0.04 82 1008.4
20260508212948 58 131 1.7 5.2 0.00 0.04 0.04 83 1008.4
20260508212446 57 152 3.5 4.3 0.00 0.04 0.04 83 1008.4
20260508211941 57 122 2.6 4.3 0.00 0.04 0.04 85 1008.5
20260508211437 57 134 1.7 4.3 0.00 0.04 0.04 85 1008.6
20260508210934 57 132 3.5 4.3 0.00 0.04 0.04 84 1008.6
20260508210431 57 109 3.5 4.3 0.00 0.04 0.04 85 1008.9
20260508205927 56 72 0.9 3.5 0.00 0.04 0.04 85 1008.9
20260508205425 56 109 1.7 2.6 0.00 0.04 0.04 85 1009.1
20260508204921 56 104 2.6 3.5 0.00 0.04 0.04 84 1008.9
20260508204418 56 147 2.6 5.2 0.02 0.04 0.04 85 1009.1
20260508203913 56 139 2.6 3.5 0.02 0.04 0.04 84 1009.0
20260508203410 57 99 1.7 5.2 0.02 0.03 0.03 83 1009.4
20260508202906 57 105 3.5 5.2 0.02 0.03 0.03 81 1009.2
20260508202403 58 116 3.5 6.1 0.02 0.03 0.03 80 1009.3
20260508201901 58 98 3.5 4.3 0.02 0.03 0.03 80 1009.5
20260508201357 59 112 0.9 3.5 0.02 0.02 0.02 80 1009.3
20260508200853 59 115 1.7 2.6 0.05 0.02 0.02 78 1009.4
20260508200350 60 113 1.7 1.7 0.02 0.02 0.02 73 1009.3
20260508195846 60 118 1.7 2.6 0.00 0.02 0.02 72 1009.4
20260508195343 60 109 0.9 2.6 0.00 0.02 0.02 72 1009.4
20260508194839 60 133 1.7 3.5 0.00 0.02 0.02 70 1009.4
20260508194336 60 110 1.7 2.6 0.00 0.02 0.02 69 1009.6
20260508193833 60 142 2.6 2.6 0.00 0.02 0.02 68 1009.3
20260508193330 61 141 2.6 2.6 0.00 0.02 0.02 67 1009.5
20260508192827 62 89 0.0 2.6 0.00 0.02 0.02 65 1009.5
20260508192324 62 54 1.7 1.7 0.00 0.02 0.02 67 1009.6
20260508191821 62 56 0.9 2.6 0.00 0.02 0.02 70 1009.6
20260508191318 62 112 1.7 2.6 0.00 0.02 0.02 64 1009.8
20260508190815 61 71 1.7 2.6 0.00 0.02 0.02 66 1009.9
20260508190311 61 136 0.0 1.7 0.00 0.02 0.02 67 1009.7
20260508185807 61 105 1.7 2.6 0.00 0.02 0.02 66 1010.0
20260508185306 60 127 1.7 1.7 0.00 0.02 0.02 68 1010.0
20260508184802 60 93 1.7 2.6 0.00 0.02 0.02 69 1010.2
20260508184259 60 86 1.7 2.6 0.00 0.02 0.02 70 1010.0
20260508183756 60 103 1.7 1.7 0.00 0.02 0.02 73 1010.2
20260508183253 60 104 1.7 1.7 0.00 0.02 0.02 71 1010.3
20260508182749 60 93 1.7 2.6 0.00 0.02 0.02 72 1010.3
20260508182245 60 70 1.7 2.6 0.00 0.02 0.02 70 1010.3
20260508181741 59 120 1.7 2.6 0.00 0.02 0.02 68 1010.3
20260508181238 60 118 1.7 2.6 0.00 0.02 0.02 68 1010.6
20260508180735 60 136 1.7 2.6 0.00 0.02 0.02 71 1010.6
20260508180232 60 72 1.7 2.6 0.00 0.02 0.02 70 1010.5
20260508175728 60 115 0.0 2.6 0.00 0.02 0.02 73 1010.6
20260508175225 59 139 2.6 3.5 0.00 0.02 0.02 71 1010.7
20260508174723 59 123 1.7 2.6 0.00 0.02 0.02 76 1010.8
20260508174220 59 108 3.5 3.5 0.00 0.02 0.02 81 1011.0
20260508173716 58 103 1.7 2.6 0.00 0.02 0.02 78 1011.1
20260508173212 57 118 2.6 3.5 0.00 0.02 0.02 78 1011.0
20260508172710 57 123 1.7 2.6 0.00 0.02 0.02 79 1011.5
20260508172207 56 105 2.6 3.5 0.00 0.02 0.02 81 1011.3
20260508171703 56 65 1.7 1.7 0.00 0.02 0.02 84 1011.4
20260508171159 56 132 1.7 2.6 0.00 0.02 0.02 85 1011.5
20260508170656 55 127 1.7 2.6 0.00 0.02 0.02 84 1011.5
20260508170154 55 129 1.7 2.6 0.00 0.02 0.02 84 1011.7
20260508165651 55 99 1.7 2.6 0.00 0.02 0.02 86 1011.7
20260508165148 54 82 1.7 1.7 0.00 0.02 0.02 89 1011.9
20260508164644 54 105 1.7 1.7 0.00 0.02 0.02 87 1011.8
20260508164141 53 100 1.7 2.6 0.02 0.02 0.02 86 1012.0
20260508163639 53 111 1.7 1.7 0.02 0.02 0.02 86 1012.0
20260508163136 53 96 1.7 1.7 0.02 0.01 0.01 85 1012.3
20260508162631 54 104 2.6 2.6 0.02 0.01 0.01 82 1012.4
20260508162129 54 98 1.7 2.6 0.02 0.01 0.01 81 1012.0
20260508161626 55 122 1.7 4.3 0.00 0.00 0.00 79 1012.3
20260508161123 56 129 2.6 4.3 0.00 0.00 0.00 76 1012.1
20260508160622 56 108 1.7 5.2 0.00 0.00 0.00 78 1012.0
20260508160119 55 137 1.7 3.5 0.00 0.00 0.00 81 1012.1
20260508155616 55 139 2.6 4.3 0.00 0.00 0.00 80 1012.1
20260508155112 55 130 2.6 4.3 0.00 0.00 0.00 81 1012.2
20260508154609 54 137 3.5 3.5 0.00 0.00 0.00 84 1012.1
20260508154106 53 126 2.6 4.3 0.00 0.00 0.00 83 1012.2
20260508153603 53 119 2.6 7.0 0.00 0.00 0.00 83 1012.0
20260508153100 53 119 2.6 3.5 0.00 0.00 0.00 85 1012.2
20260508152557 53 115 2.6 4.3 0.00 0.00 0.00 84 1012.1
20260508152051 53 134 3.5 3.5 0.00 0.00 0.00 86 1012.2
20260508151549 53 81 1.7 3.5 0.00 0.00 0.00 85 1012.3
20260508151046 52 92 1.7 3.5 0.00 0.00 0.00 86 1012.4
20260508150543 52 120 3.5 5.2 0.00 0.00 0.00 85 1012.4
20260508150038 52 153 4.3 5.2 0.00 0.00 0.00 86 1012.5
20260508145536 52 117 1.7 3.5 0.00 0.00 0.00 88 1012.6
20260508145032 51 120 3.5 3.5 0.00 0.00 0.00 88 1012.6
20260508144530 51 137 2.6 3.5 0.00 0.00 0.00 88 1012.5
20260508144027 51 117 1.7 3.5 0.02 0.00 0.00 87 1012.5
20260508143525 51 88 1.7 4.3 0.02 0.00 0.00 87 1012.8
20260508143021 51 124 3.5 4.3 0.00 0.00 0.00 86 1012.8
20260508142518 52 122 3.5 3.5 0.00 0.00 0.00 85 1012.9
20260508142014 52 101 2.6 3.5 0.00 0.00 0.00 85 1012.8
20260508141511 52 117 2.6 2.6 0.00 0.00 0.00 86 1012.8
20260508141009 52 128 1.7 7.8 0.00 0.00 0.00 85 1012.8
20260508140506 52 108 1.7 3.5 0.00 0.00 0.00 86 1013.1
20260508140001 52 105 1.7 4.3 0.00 0.00 0.00 85 1012.7
20260508135458 53 121 1.7 5.2 0.00 0.00 0.00 84 1012.3
20260508134954 53 127 3.5 4.3 0.00 0.00 0.00 86 1012.4
20260508134451 52 123 2.6 2.6 0.00 0.00 0.00 86 1012.3
20260508133947 52 134 3.5 3.5 0.00 0.00 0.00 86 1012.6
20260508133445 52 89 1.7 2.6 0.00 0.00 0.00 85 1012.6
20260508132941 52 115 2.6 2.6 0.00 0.00 0.00 86 1012.7
20260508132440 52 126 1.7 2.6 0.00 0.00 0.00 88 1012.8
20260508131936 51 120 1.7 2.6 0.00 0.00 0.00 89 1012.6
20260508131432 50 112 1.7 2.6 0.00 0.00 0.00 90 1012.4
20260508130929 50 108 1.7 1.7 0.00 0.00 0.00 91 1012.3
20260508130426 50 117 1.7 2.6 0.00 0.00 0.00 92 1012.6
20260508125921 50 111 1.7 2.6 0.00 0.00 0.00 92 1012.6
20260508125418 50 106 1.7 1.7 0.00 0.00 0.00 92 1012.9
20260508124916 49 123 1.7 2.6 0.00 0.00 0.00 93 1012.5
20260508124413 49 101 1.7 1.7 0.00 0.00 0.00 94 1012.4
20260508123911 49 112 1.7 2.6 0.00 0.00 0.00 96 1012.6
20260508123409 49 92 1.7 2.6 0.00 0.00 0.00 96 1012.5
20260508122905 49 94 1.7 1.7 0.00 0.00 0.00 96 1012.5
20260508122402 49 111 1.7 1.7 0.00 0.00 0.00 97 1012.6
20260508121859 49 110 1.7 1.7 0.00 0.00 0.00 97 1012.3
20260508121358 48 92 1.7 1.7 0.00 0.00 0.00 97 1012.3
20260508120855 49 113 0.9 1.7 0.00 0.00 0.00 97 1012.4
20260508120353 48 113 1.7 1.7 0.00 0.00 0.00 97 1012.2
20260508115850 48 97 1.7 1.7 0.00 0.00 0.00 97 1012.2
20260508115347 48 102 1.7 1.7 0.00 0.00 0.00 97 1012.2
20260508114843 47 109 1.7 1.7 0.00 0.00 0.00 97 1012.3
20260508114340 47 102 1.7 2.6 0.00 0.00 0.00 97 1012.2
20260508113837 46 114 1.7 2.6 0.00 0.00 0.00 97 1012.4
20260508113335 46 121 1.7 1.7 0.00 0.00 0.00 97 1012.2
20260508112831 46 106 1.7 1.7 0.00 0.00 0.00 97 1011.9
20260508112329 46 101 1.7 1.7 0.00 0.00 0.00 97 1012.2
20260508111825 45 106 1.7 2.6 0.00 0.00 0.00 97 1012.0
20260508111322 45 98 1.7 1.7 0.00 0.00 0.00 97 1012.2
20260508110820 45 132 1.7 2.6 0.00 0.00 0.00 97 1011.8
20260508110317 45 98 1.7 2.6 0.00 0.00 0.00 97 1011.9
20260508105817 44 109 1.7 2.6 0.00 0.00 0.00 97 1012.0
20260508105314 44 103 1.7 2.6 0.00 0.00 0.00 97 1011.9
20260508104811 44 98 1.7 1.7 0.00 0.00 0.00 97 1011.7
20260508104308 44 108 1.7 2.6 0.00 0.00 0.00 97 1011.7
20260508103805 43 121 1.7 3.5 0.00 0.00 0.00 97 1011.8
20260508103301 42 108 1.7 2.6 0.00 0.00 0.00 97 1011.8
20260508102759 42 137 2.6 3.5 0.00 0.00 0.00 97 1011.8
20260508102257 42 112 1.7 1.7 0.00 0.00 0.00 97 1011.5
20260508101754 42 121 1.7 2.6 0.00 0.00 0.00 97 1011.6
20260508101252 42 110 1.7 2.6 0.00 0.00 0.00 97 1011.6
20260508100749 42 113 1.7 1.7 0.00 0.00 0.00 97 1011.7
20260508100247 42 110 1.7 2.6 0.00 0.00 0.00 97 1011.7
20260508095743 43 105 1.7 1.7 0.00 0.00 0.00 97 1011.7
20260508095241 43 75 1.7 1.7 0.00 0.00 0.00 97 1011.7
20260508094737 43 88 1.7 1.7 0.00 0.00 0.00 97 1011.9
20260508094234 43 63 1.7 1.7 0.00 0.00 0.00 97 1012.0
20260508093731 43 103 1.7 2.6 0.00 0.00 0.00 97 1012.0
20260508093229 42 122 2.6 2.6 0.00 0.00 0.00 97 1011.8
20260508092726 42 107 1.7 1.7 0.00 0.00 0.00 97 1011.9
20260508092224 42 114 1.7 2.6 0.00 0.00 0.00 97 1011.9
20260508091722 42 113 2.6 2.6 0.00 0.00 0.00 97 1012.0
20260508091218 42 115 1.7 2.6 0.00 0.00 0.00 97 1011.9
20260508090716 42 107 1.7 2.6 0.00 0.00 0.00 97 1011.8
20260508090214 42 109 1.7 1.7 0.00 0.00 0.00 97 1012.1
20260508085709 42 103 1.7 2.6 0.00 0.00 0.00 97 1012.0
20260508085207 42 119 1.7 1.7 0.00 0.00 0.00 97 1011.9
20260508084702 42 107 1.7 2.6 0.00 0.00 0.00 97 1012.1
20260508084200 42 110 1.7 1.7 0.00 0.00 0.00 97 1011.9
20260508083658 42 115 1.7 2.6 0.00 0.00 0.00 97 1011.9
20260508083155 42 124 2.6 2.6 0.00 0.00 0.00 97 1012.0
20260508082650 41 113 2.6 3.5 0.00 0.00 0.00 97 1012.0
20260508082147 41 118 1.7 2.6 0.00 0.00 0.00 97 1012.0
20260508081645 41 114 1.7 2.6 0.00 0.00 0.00 97 1012.0
20260508081141 41 111 1.7 1.7 0.00 0.00 0.00 97 1012.0
20260508080639 41 116 1.7 1.7 0.00 0.00 0.00 96 1012.0
20260508080137 41 115 1.7 2.6 0.00 0.00 0.00 96 1011.9
20260508075633 41 93 1.7 1.7 0.00 0.00 0.00 96 1011.8
20260508075130 41 110 1.7 1.7 0.00 0.00 0.00 97 1012.1
20260508074628 41 107 1.7 1.7 0.00 0.00 0.00 96 1012.0
20260508074124 40 112 1.7 1.7 0.00 0.00 0.00 96 1011.9
20260508073622 40 110 1.7 1.7 0.00 0.00 0.00 96 1012.1
20260508073120 40 96 1.7 1.7 0.00 0.00 0.00 96 1011.9
20260508072614 41 105 1.7 2.6 0.00 0.00 0.00 96 1011.9
20260508072112 41 99 1.7 1.7 0.00 0.00 0.00 96 1012.1
20260508071610 41 106 1.7 1.7 0.00 0.00 0.00 96 1011.9
20260508071108 41 106 1.7 1.7 0.00 0.00 0.00 96 1011.9
20260508070605 41 104 1.7 1.7 0.00 0.00 0.00 96 1012.2
20260508065600 41 102 1.7 2.6 0.00 0.00 0.00 96 1012.2
20260508065058 41 107 1.7 1.7 0.00 0.00 0.00 96 1012.1
20260508064555 40 106 1.7 1.7 0.00 0.00 0.00 96 1012.2
20260508064053 41 101 1.7 1.7 0.00 0.00 0.00 96 1012.3
20260508063550 41 100 1.7 2.6 0.00 0.00 0.00 96 1012.3
20260508063048 41 108 1.7 1.7 0.00 0.00 0.00 96 1012.3
20260508062546 41 110 1.7 1.7 0.00 0.00 0.00 96 1012.4
20260508062042 41 106 1.7 1.7 0.00 0.00 0.00 96 1012.5
20260508061540 41 111 1.7 1.7 0.00 0.00 0.00 95 1012.5
20260508061037 41 103 1.7 1.7 0.00 0.00 0.00 95 1012.6
20260508060533 41 101 1.7 1.7 0.00 0.00 0.00 95 1012.6
20260508060031 41 108 1.7 1.7 0.00 0.00 0.00 95 1012.6
20260508055526 41 105 1.7 1.7 0.00 0.00 0.00 95 1012.6
20260508055024 41 96 1.7 2.6 0.00 0.00 0.00 95 1012.6
20260508054520 41 105 1.7 2.6 0.00 0.00 0.00 95 1012.6
20260508054017 41 113 1.7 1.7 0.00 0.00 0.00 95 1012.7
20260508053514 41 101 1.7 1.7 0.00 0.00 0.00 95 1012.6
20260508053013 41 113 1.7 2.6 0.00 0.00 0.00 95 1012.6
20260508052509 42 101 1.7 2.6 0.00 0.00 0.00 95 1012.7
20260508052006 42 107 1.7 2.6 0.00 0.00 0.00 95 1012.6
20260508051502 42 109 1.7 1.7 0.00 0.00 0.00 95 1012.8
20260508050957 42 101 1.7 1.7 0.00 0.00 0.00 95 1012.8
20260508050454 42 104 1.7 1.7 0.00 0.00 0.00 95 1012.9
20260508045951 42 105 1.7 1.7 0.00 0.00 0.00 94 1012.7
20260508045448 42 98 1.7 1.7 0.00 0.00 0.00 94 1013.1
20260508044945 43 99 1.7 1.7 0.00 0.00 0.00 94 1012.8
20260508044442 43 105 1.7 1.7 0.00 0.00 0.00 94 1013.1
20260508043938 43 105 1.7 1.7 0.00 0.00 0.00 94 1012.7
20260508043436 43 105 1.7 1.7 0.00 0.00 0.00 94 1012.8
20260508042931 43 89 1.7 1.7 0.00 0.00 0.00 94 1012.9
20260508042430 44 93 1.7 1.7 0.00 0.00 0.00 94 1012.8
20260508041926 44 98 1.7 1.7 0.00 0.00 0.00 94 1012.7
20260508041423 44 102 1.7 1.7 0.00 0.00 0.00 94 1012.8
20260508040919 45 94 1.7 2.6 0.00 0.00 0.00 94 1013.1
20260508040417 45 112 1.7 1.7 0.00 0.00 0.00 94 1013.1
20260508035915 45 93 1.7 1.7 0.00 0.04 0.04 94 1012.7
20260508035411 45 111 1.7 1.7 0.00 0.04 0.04 94 1012.9
20260508034908 46 100 1.7 1.7 0.00 0.04 0.04 94 1012.8
20260508034406 46 89 1.7 1.7 0.00 0.04 0.04 94 1012.6